• In Hungary
  • List of Countries
  • For 7 days
  • Water Temperature
  • Satellite Maps
  • Weather Map
  • News
  • Weather Widgets
  • user-avatar
    Login

    Hourly Weather Kota Bahru

    Today, 25 November, Saturday

    Time Temperature Precipitation Wind Pressure Humidity
    00:00 +25°C° 0.8 mm 2 mps 757 mmHg 96%
    01:00 +25°C° 0 mm 1 mps 757 mmHg 97%
    02:00 +25°C° 0.8 mm 1 mps 757 mmHg 97%
    03:00 +25°C° 0.8 mm 1 mps 756 mmHg 97%
    04:00 +25°C° 0.8 mm 1 mps 756 mmHg 97%
    05:00 +25°C° 0.7 mm 1 mps 757 mmHg 96%
    06:00 +26°C° 0.7 mm 1 mps 757 mmHg 96%
    07:00 +26°C° 0 mm 2 mps 757 mmHg 95%
    08:00 +27°C° 1.8 mm 2 mps 757 mmHg 93%
    09:00 +28°C° 1.8 mm 2 mps 757 mmHg 91%
    10:00 +29°C° 1.8 mm 2 mps 758 mmHg 89%
    11:00 +29°C° 1.9 mm 3 mps 757 mmHg 89%
    12:00 +29°C° 1.9 mm 3 mps 757 mmHg 89%
    13:00 +30°C° 1.9 mm 4 mps 757 mmHg 89%
    14:00 +29°C° 1.4 mm 4 mps 756 mmHg 90%
    15:00 +29°C° 1.4 mm 4 mps 756 mmHg 92%
    16:00 +28°C° 1.4 mm 4 mps 756 mmHg 93%
    17:00 +28°C° 1.2 mm 4 mps 756 mmHg 95%
    18:00 +27°C° 1.2 mm 4 mps 756 mmHg 96%
    19:00 +26°C° 1.2 mm 4 mps 757 mmHg 97%
    20:00 +26°C° 1.2 mm 4 mps 757 mmHg 97%
    21:00 +26°C° 1.2 mm 4 mps 757 mmHg 97%
    22:00 +26°C° 1.2 mm 4 mps 758 mmHg 98%
    23:00 +26°C° 1.5 mm 4 mps 758 mmHg 98%

    Tomorrow, 26 November, Sunday

    Time Temperature Precipitation Wind Pressure Humidity
    00:00 +26°C° 1.5 mm 3 mps 757 mmHg 98%
    01:00 +26°C° 1.5 mm 3 mps 757 mmHg 98%
    02:00 +26°C° 2 mm 3 mps 757 mmHg 98%
    03:00 +26°C° 2 mm 3 mps 757 mmHg 98%
    04:00 +26°C° 2 mm 3 mps 757 mmHg 98%
    05:00 +26°C° 2.7 mm 3 mps 757 mmHg 98%
    06:00 +26°C° 2.7 mm 3 mps 757 mmHg 98%
    07:00 +26°C° 2.7 mm 4 mps 757 mmHg 98%
    08:00 +26°C° 2.3 mm 3 mps 757 mmHg 98%
    09:00 +26°C° 2.3 mm 3 mps 757 mmHg 98%
    10:00 +27°C° 2.3 mm 3 mps 758 mmHg 98%
    11:00 +27°C° 1.5 mm 3 mps 757 mmHg 96%
    12:00 +28°C° 1.5 mm 3 mps 757 mmHg 95%
    13:00 +28°C° 1.5 mm 3 mps 757 mmHg 93%
    14:00 +28°C° 1.4 mm 3 mps 756 mmHg 94%
    15:00 +28°C° 1.4 mm 3 mps 755 mmHg 95%
    16:00 +28°C° 1.4 mm 3 mps 755 mmHg 96%
    17:00 +27°C° 1.1 mm 3 mps 755 mmHg 96%
    18:00 +27°C° 1.1 mm 3 mps 755 mmHg 97%
    19:00 +26°C° 1.1 mm 3 mps 756 mmHg 97%
    20:00 +26°C° 1.4 mm 3 mps 756 mmHg 98%
    21:00 +26°C° 1.4 mm 3 mps 757 mmHg 98%
    22:00 +26°C° 1.4 mm 3 mps 757 mmHg 98%
    23:00 +26°C° 1.1 mm 3 mps 757 mmHg 98%

    Day after tomorrow, 27 November, Monday

    Time Temperature Precipitation Wind Pressure Humidity
    00:00 +25°C° 1.1 mm 3 mps 757 mmHg 98%
    01:00 +25°C° 1.1 mm 3 mps 756 mmHg 98%
    02:00 +25°C° 1.7 mm 3 mps 756 mmHg 98%
    03:00 +25°C° 1.7 mm 2 mps 755 mmHg 98%
    04:00 +25°C° 1.7 mm 2 mps 755 mmHg 98%
    05:00 +25°C° 2.1 mm 2 mps 755 mmHg 97%
    06:00 +25°C° 2.1 mm 2 mps 756 mmHg 97%
    07:00 +25°C° 2.1 mm 2 mps 756 mmHg 97%
    08:00 +26°C° 2.3 mm 2 mps 756 mmHg 95%
    09:00 +27°C° 2.3 mm 2 mps 757 mmHg 92%
    10:00 +28°C° 2.3 mm 2 mps 757 mmHg 90%
    11:00 +28°C° 2.7 mm 2 mps 756 mmHg 91%
    12:00 +28°C° 2.7 mm 2 mps 756 mmHg 91%
    13:00 +29°C° 2.7 mm 3 mps 755 mmHg 92%
    14:00 +28°C° 1.9 mm 3 mps 755 mmHg 93%
    15:00 +28°C° 1.9 mm 3 mps 754 mmHg 94%
    16:00 +28°C° 1.9 mm 3 mps 754 mmHg 95%
    17:00 +27°C° 1.3 mm 3 mps 754 mmHg 95%
    18:00 +27°C° 1.3 mm 3 mps 755 mmHg 96%
    19:00 +26°C° 1.3 mm 3 mps 755 mmHg 97%
    20:00 +26°C° 1.3 mm 3 mps 756 mmHg 97%
    21:00 +26°C° 1.3 mm 3 mps 756 mmHg 97%
    22:00 +25°C° 1.3 mm 3 mps 757 mmHg 98%
    23:00 +25°C° 1.5 mm 3 mps 756 mmHg 98%

    28 November, Tuesday

    Time Temperature Precipitation Wind Pressure Humidity
    00:00 +25°C° 1.5 mm 2 mps 756 mmHg 98%
    01:00 +25°C° 1.5 mm 2 mps 756 mmHg 98%
    02:00 +25°C° 1.6 mm 2 mps 755 mmHg 98%
    03:00 +25°C° 1.6 mm 2 mps 755 mmHg 98%
    04:00 +25°C° 1.6 mm 2 mps 754 mmHg 98%
    05:00 +25°C° 1.3 mm 1 mps 755 mmHg 98%
    06:00 +25°C° 1.3 mm 1 mps 755 mmHg 97%
    07:00 +25°C° 1.3 mm 1 mps 756 mmHg 97%
    08:00 +26°C° 1.7 mm 2 mps 756 mmHg 95%
    09:00 +27°C° 1.7 mm 2 mps 757 mmHg 94%
    10:00 +28°C° 1.7 mm 2 mps 757 mmHg 92%
    11:00 +27°C° 3.7 mm 2 mps 757 mmHg 94%
    12:00 +27°C° 3.7 mm 3 mps 756 mmHg 96%
    13:00 +26°C° 3.7 mm 3 mps 755 mmHg 98%
    14:00 +26°C° 2.8 mm 3 mps 755 mmHg 98%
    15:00 +26°C° 2.8 mm 3 mps 754 mmHg 98%
    16:00 +26°C° 2.8 mm 4 mps 754 mmHg 98%
    17:00 +26°C° 3.7 mm 4 mps 754 mmHg 98%
    18:00 +26°C° 3.7 mm 5 mps 755 mmHg 98%
    19:00 +26°C° 3.7 mm 5 mps 755 mmHg 98%
    20:00 +26°C° 6.8 mm 5 mps 756 mmHg 98%
    21:00 +26°C° 6.8 mm 5 mps 756 mmHg 99%
    22:00 +26°C° 6.8 mm 5 mps 756 mmHg 99%
    23:00 +26°C° 10.7 mm 5 mps 756 mmHg 99%

    29 November, Wednesday

    Time Temperature Precipitation Wind Pressure Humidity
    00:00 +26°C° 10.7 mm 5 mps 755 mmHg 99%
    01:00 +26°C° 10.7 mm 5 mps 755 mmHg 99%
    02:00 +26°C° 9.4 mm 5 mps 754 mmHg 99%
    03:00 +26°C° 9.4 mm 5 mps 754 mmHg 99%
    04:00 +26°C° 9.4 mm 5 mps 753 mmHg 99%
    05:00 +26°C° 7.8 mm 6 mps 754 mmHg 99%
    06:00 +26°C° 7.8 mm 6 mps 754 mmHg 98%
    07:00 +24°C° 7.8 mm 6 mps 755 mmHg 98%
    08:00 +26°C° 16.9 mm 6 mps 755 mmHg 98%
    09:00 +26°C° 16.9 mm 6 mps 755 mmHg 98%
    10:00 +26°C° 16.9 mm 7 mps 755 mmHg 98%
    11:00 +26°C° 23.1 mm 6 mps 755 mmHg 98%
    12:00 +26°C° 23.1 mm 6 mps 754 mmHg 98%
    13:00 +26°C° 23.1 mm 6 mps 753 mmHg 98%
    14:00 +26°C° 9.9 mm 5 mps 753 mmHg 98%
    15:00 +25°C° 9.9 mm 5 mps 753 mmHg 98%
    16:00 +25°C° 9.9 mm 5 mps 752 mmHg 97%
    17:00 +25°C° 0.8 mm 4 mps 753 mmHg 98%
    18:00 +25°C° 0.8 mm 4 mps 753 mmHg 98%
    19:00 +25°C° 0.8 mm 4 mps 754 mmHg 98%
    20:00 +25°C° 0.6 mm 3 mps 754 mmHg 98%
    21:00 +25°C° 0.6 mm 3 mps 755 mmHg 98%
    22:00 +25°C° 0.6 mm 3 mps 755 mmHg 97%
    23:00 +25°C° 0.6 mm 3 mps 755 mmHg 97%

    30 November, Thursday

    Time Temperature Precipitation Wind Pressure Humidity
    00:00 +25°C° 0.6 mm 2 mps 755 mmHg 97%
    01:00 +25°C° 0.6 mm 2 mps 754 mmHg 97%
    02:00 +25°C° 0.3 mm 2 mps 754 mmHg 97%
    03:00 +25°C° 0.3 mm 2 mps 754 mmHg 97%
    04:00 +25°C° 0.3 mm 2 mps 754 mmHg 97%
    05:00 +25°C° 0.3 mm 2 mps 754 mmHg 96%
    06:00 +25°C° 0.3 mm 1 mps 754 mmHg 96%
    07:00 +25°C° 0.3 mm 1 mps 755 mmHg 95%
    08:00 +27°C° 0.2 mm 1 mps 755 mmHg 89%
    09:00 +29°C° 0.2 mm 1 mps 755 mmHg 82%
    10:00 +31°C° 0.2 mm 1 mps 755 mmHg 75%
    11:00 +31°C° 0.5 mm 2 mps 755 mmHg 73%
    12:00 +32°C° 0.5 mm 2 mps 754 mmHg 70%
    13:00 +34°C° 0.5 mm 3 mps 753 mmHg 68%
    14:00 +33°C° 0.9 mm 3 mps 753 mmHg 75%
    15:00 +31°C° 0.9 mm 3 mps 753 mmHg 82%
    16:00 +30°C° 0.9 mm 4 mps 752 mmHg 89%
    17:00 +29°C° 0.9 mm 4 mps 753 mmHg 91%
    18:00 +28°C° 0.9 mm 4 mps 754 mmHg 94%
    19:00 +27°C° 0.9 mm 4 mps 754 mmHg 96%
    20:00 +27°C° 2 mm 3 mps 755 mmHg 96%
    21:00 +27°C° 2 mm 3 mps 755 mmHg 96%
    22:00 +27°C° 2 mm 3 mps 756 mmHg 96%
    23:00 +26°C° 2.3 mm 3 mps 755 mmHg 96%
    Show more